This is the latest recevied weather packets stored in our database for station/object N4HAC. If no packets are shown the sender has not sent any weather packets the latest 10 day(s).
| Time | Temp. | Humidity | Pressure | Rain* | Wind** | Luminosity | Snow |
|---|---|---|---|---|---|---|---|
| 1777999494 | 26.11° C | 41% | 1005.6 hPa | 0 mm | - | 857 W/m² | - |
| 1777999192 | 25.56° C | 41% | 1005.8 hPa | 0 mm | - | 839 W/m² | - |
| 1777998891 | 25.56° C | 42% | 1005.9 hPa | 0 mm | - | 834 W/m² | - |
| 1777998590 | 25.56° C | 46% | 1005.8 hPa | 0 mm | - | 825 W/m² | - |
| 1777998285 | 25.56° C | 43% | 1005.9 hPa | 0 mm | - | 817 W/m² | - |
| 1777997982 | 25° C | 43% | 1006.1 hPa | 0 mm | - | 816 W/m² | - |
| 1777997678 | 25° C | 43% | 1006.2 hPa | 0 mm | - | 814 W/m² | - |
| 1777997376 | 25° C | 43% | 1006.1 hPa | 0 mm | - | 812 W/m² | - |
| 1777997075 | 25° C | 43% | 1006.4 hPa | 0 mm | - | 809 W/m² | - |
| 1777996770 | 25.56° C | 43% | 1006.4 hPa | 0 mm | - | 805 W/m² | - |
| 1777996467 | 25.56° C | 43% | 1006.5 hPa | 0 mm | - | 805 W/m² | - |
| 1777996164 | 25° C | 45% | 1006.8 hPa | 0 mm | - | 808 W/m² | - |
| 1777995860 | 25° C | 46% | 1006.8 hPa | 0 mm | - | 811 W/m² | - |
| 1777995556 | 25.56° C | 45% | 1006.8 hPa | 0 mm | - | 808 W/m² | - |
| 1777995254 | 24.44° C | 44% | 1006.8 hPa | 0 mm | - | 808 W/m² | - |
| 1777994951 | 24.44° C | 45% | 1007 hPa | 0 mm | - | 802 W/m² | - |
| 1777994648 | 23.89° C | 45% | 1007 hPa | 0 mm | - | 795 W/m² | - |
| 1777994348 | 24.44° C | 43% | 1007.1 hPa | 0 mm | - | 784 W/m² | - |
| 1777994044 | 23.89° C | 45% | 1006.9 hPa | 0 mm | - | 775 W/m² | - |
| 1777993742 | 24.44° C | 45% | 1006.9 hPa | 0 mm | - | 777 W/m² | - |
| 1777993439 | 23.33° C | 46% | 1006.8 hPa | 0 mm | - | 752 W/m² | - |
| 1777993138 | 23.33° C | 48% | 1007 hPa | 0 mm | - | 741 W/m² | - |
| 1777992837 | 23.33° C | 48% | 1006.6 hPa | 0 mm | - | 732 W/m² | - |
| 1777992534 | 23.89° C | 49% | 1006.7 hPa | 0 mm | - | 722 W/m² | - |
| 1777992233 | 23.33° C | 48% | 1006.6 hPa | 0 mm | - | 714 W/m² | - |
* Rain latest hour (hover to see other rain measurements)
** Current wind speed in m/s (hover to see current wind gust speed)